METEOR 1-23

Satellite information

Favourite Embed

Satellite Type and Status

PAYLOADIN ORBIT

Key statistics

Satellite METEOR 1-23 at a glance.

Uptime

18092

Days in orbit

Revolutions

≈ 14.1

Per day

Orbit

LEO

Low Earth Orbit

Inclination

81.2

Latest

Satellite identification and parameters

Extended collection of information and parameters for METEOR 1-23.

Object identification

Identified? True

Debris? False

Object name: METEOR 1-23

International designator: 1975-124A

Object number (NORAD): 8519

Object ID (CCSDS): 8519

Country: COMMONWEALTH OF INDEPENDENT STATES (CIS)

Current information (Y/N): Y

RCS size: LARGE

Orbital parameters

Period: 102.033 minutes

Inclination: 81.2442 deg

SMA: 7233.052 km

Apoapsis: 863.881 km

Periapsis: 845.953 km

RAAN: 101.8966 deg

Eccentricy: 0.0012393

Argument of periapsis: 221.9873 deg

Mean anomaly: 138.035 deg

Mean motion: 14.11303326 rev/day

Mean motion (dot): 0.00000018 rev/day2

B* drag term: 0.0000031554 1/REarth

Two-line elements (TLE)

Creation date: July 6, 2025, 6:05 p.m.

Reference frame: TEME

Reference center: EARTH

Epoch: July 6, 2025, 6:29 a.m. UTC

TLE line 0: 0 METEOR 1-23

TLE line 1: 1 08519U 75124A 25187.27057828 .00000018 00000-0 31554-5 0 9996

TLE line 2: 2 08519 81.2442 101.8966 0012393 221.9873 138.0350 14.11303326548097

Live tracking on map

Real-time ground track for satellite METEOR 1-23.

In-orbit conjunctions

A list of the most updated potential collisions computed for object METEOR 1-23.

Target Orbit TCA Probability of collision Miss distance Type
DELTA 1 DEB SSO 2025-01-30 22:49:35 0.0005567311 397.0 (m) DEBRIS
NOAA 16 DEB SSO 2024-07-26 01:00:27 0.0005024527 78.0 (m) DEBRIS
NOAA 16 DEB SSO 2024-07-23 18:31:38 0.001571559 232.0 (m) DEBRIS
METEOR 2-8 DEB LEO 2024-07-21 01:50:42 0.0006235783 49.0 (m) DEBRIS

Associated space launch

The Meteor-1 series was the first series of Soviet meteorological satellites.

METEOR 1-23 was lifted into orbit during the mission ‘Vostok 8A92M | Meteor-1 23 (38L)’, on board a Vostok 8A92M space rocket.

The launch took place on Dec. 25, 1975, 7 p.m. from 41/1.

For more information about the launch, click the button.

Launch to space Vostok 8A92M | Meteor-1 23 (38L)
Vostok 8A92M | Meteor-1 23 (38L)

Agency: N/A

Status: Launch Successful

Launch date: Dec. 25, 1975, 7 p.m. UTC

Rocket: Vostok 8A92M

Launch pad: 41/1

Location: Plesetsk Cosmodrome, Russian Federation

...

Latest news about this satellite

There are no fresh news available about this satellite. Check back as we update our databases every day.


Newsletter sign-up

Weekly statistics, charts and insights to help you stay on top of the space industry.